GW6012 Weather Reports


time (UTC)temp
C
wind
direction
speed
KPH
gust
KPH
rain 1hr
cm
rain 24hr
cm
rain mn
cm
humidity
%
barometer
mb
20260507085508 12 49 0.0 3.2 0.00 0.00 0.00 85 1018.1
20260507085008 12 49 0.0 3.2 0.00 0.00 0.00 85 1018.2
20260507084518 12 49 0.0 3.2 0.00 0.00 0.00 85 1018.2
20260507084008 12 49 0.0 3.2 0.00 0.00 0.00 85 1018.3
20260507083510 13 49 0.0 1.6 0.00 0.00 0.00 85 1018.3
20260507083016 12 49 0.0 3.2 0.00 0.00 0.00 86 1018.4
20260507082508 12 49 0.0 3.2 0.00 0.00 0.00 85 1018.3
20260507082004 12 49 0.0 3.2 0.00 0.00 0.00 85 1018.3
20260507081513 12 49 0.0 3.2 0.00 0.00 0.00 85 1018.3
20260507081008 12 49 0.0 3.2 0.00 0.00 0.00 85 1018.3
20260507080507 12 79 0.0 3.2 0.00 0.00 0.00 84 1018.4
20260507080018 13 79 0.0 3.2 0.00 0.00 0.00 85 1018.4
20260507075508 13 46 0.0 3.2 0.00 0.00 0.00 85 1018.3
20260507075003 13 46 0.0 3.2 0.00 0.00 0.00 85 1018.3
20260507074505 13 139 0.0 3.2 0.00 0.00 0.00 85 1018.3
20260507074004 13 120 0.0 3.2 0.00 0.00 0.00 85 1018.3
20260507073504 13 48 1.6 3.2 0.00 0.00 0.00 85 1018.2
20260507073006 13 37 0.0 3.2 0.00 0.00 0.00 85 1018.2
20260507072508 12 51 0.0 3.2 0.00 0.00 0.00 85 1018.3
20260507072003 13 51 0.0 3.2 0.00 0.00 0.00 85 1018.4
20260507071512 12 51 0.0 3.2 0.00 0.00 0.00 85 1018.4
20260507071007 13 51 0.0 3.2 0.00 0.00 0.00 84 1018.5
20260507070508 13 51 0.0 3.2 0.00 0.00 0.00 85 1018.5
20260507070016 13 51 0.0 3.2 0.00 0.00 0.00 85 1018.6
20260507065509 13 51 0.0 3.2 0.00 0.00 0.00 85 1018.5
20260507065008 13 51 0.0 3.2 0.00 0.00 0.00 84 1018.5
20260507064525 13 49 0.0 3.2 0.00 0.00 0.00 84 1018.5
20260507064004 13 46 0.0 3.2 0.00 0.00 0.00 84 1018.5
20260507063504 13 46 0.0 3.2 0.00 0.00 0.00 84 1018.5
20260507063003 13 46 0.0 3.2 0.00 0.00 0.00 85 1018.5
20260507062506 13 46 0.0 3.2 0.00 0.00 0.00 84 1018.5
20260507062005 14 46 0.0 3.2 0.00 0.00 0.00 85 1018.6
20260507061508 14 45 0.0 3.2 0.00 0.00 0.00 85 1018.5
20260507061005 14 45 0.0 3.2 0.00 0.00 0.00 85 1018.6
20260507060506 14 45 0.0 3.2 0.00 0.00 0.00 85 1018.6
20260507060021 14 43 0.0 3.2 0.00 0.00 0.00 85 1018.7
20260507055508 14 45 0.0 3.2 0.00 0.00 0.00 84 1018.7
20260507055011 14 55 0.0 4.8 0.00 0.00 0.00 84 1018.8
20260507054520 14 166 0.0 4.8 0.00 0.00 0.00 84 1018.8
20260507054011 14 166 0.0 1.6 0.00 0.00 0.00 84 1018.7
20260507053510 14 166 0.0 1.6 0.00 0.00 0.00 83 1018.7
20260507053005 14 166 0.0 3.2 0.00 0.00 0.00 83 1018.7
20260507052504 14 166 0.0 3.2 0.00 0.00 0.00 82 1018.7
20260507052005 14 166 0.0 4.8 0.00 0.00 0.00 83 1018.7
20260507051508 14 166 0.0 4.8 0.00 0.00 0.00 83 1018.7
20260507051004 14 166 0.0 0.0 0.00 0.00 0.00 82 1018.7
20260507050504 15 166 0.0 1.6 0.00 0.00 0.00 83 1018.6
20260507050014 14 166 0.0 3.2 0.00 0.00 0.00 83 1018.7
20260507045507 15 166 0.0 3.2 0.00 0.00 0.00 83 1018.7
20260507045008 15 166 0.0 1.6 0.00 0.00 0.00 83 1018.7
20260507044525 15 166 0.0 4.8 0.00 0.00 0.00 84 1018.7
20260507044009 15 166 0.0 4.8 0.00 0.00 0.00 84 1018.6
20260507043509 15 187 0.0 3.2 0.00 0.00 0.00 84 1018.6
20260507043021 15 188 0.0 3.2 0.00 0.00 0.00 84 1018.6
20260507042511 15 188 0.0 3.2 0.00 0.00 0.00 83 1018.5
20260507042004 15 188 0.0 3.2 0.00 0.00 0.00 84 1018.5
20260507041520 15 197 0.0 3.2 0.00 0.00 0.00 83 1018.5
20260507041004 15 190 0.0 3.2 0.00 0.00 0.00 83 1018.5
20260507040506 15 190 0.0 3.2 0.00 0.00 0.00 83 1018.4
20260507040013 15 190 0.0 3.2 0.00 0.00 0.00 83 1018.4
20260507035508 15 202 0.0 3.2 0.00 0.00 0.00 82 1018.2
20260507035007 15 202 0.0 3.2 0.00 0.00 0.00 82 1018.2
20260507034518 15 210 0.0 3.2 0.00 0.00 0.00 81 1018.1
20260507034008 15 227 1.6 3.2 0.00 0.00 0.00 81 1018.0
20260507033508 16 159 1.6 4.8 0.00 0.00 0.00 80 1017.9
20260507033020 16 155 0.0 4.8 0.00 0.00 0.00 80 1017.8
20260507032513 16 145 0.0 3.2 0.00 0.00 0.00 79 1017.9
20260507032013 16 209 0.0 3.2 0.00 0.00 0.00 78 1017.8
20260507031529 16 209 0.0 3.2 0.00 0.00 0.00 78 1017.7
20260507031015 16 209 0.0 3.2 0.00 0.00 0.00 78 1017.7
20260507030508 16 221 0.0 3.2 0.00 0.00 0.00 77 1017.6
20260507030013 16 210 0.0 4.8 0.00 0.00 0.00 77 1017.6
20260507025506 16 199 1.6 4.8 0.00 0.00 0.00 76 1017.6
20260507025004 16 205 0.0 6.4 0.00 0.00 0.00 75 1017.5
20260507024515 16 219 1.6 6.4 0.00 0.00 0.00 74 1017.5
20260507024010 16 222 1.6 6.4 0.00 0.00 0.00 73 1017.5
20260507023511 16 213 0.0 4.8 0.00 0.00 0.00 72 1017.5
20260507023018 17 204 1.6 6.4 0.00 0.00 0.00 72 1017.5
20260507022512 17 210 1.6 6.4 0.00 0.00 0.00 72 1017.4
20260507022013 17 223 3.2 6.4 0.00 0.00 0.00 72 1017.4
20260507021524 17 234 1.6 8.0 0.00 0.00 0.00 72 1017.5
20260507021012 17 200 3.2 8.0 0.00 0.00 0.00 72 1017.4
20260507020510 17 219 3.2 8.0 0.00 0.00 0.00 72 1017.4
20260507020024 17 188 3.2 6.4 0.00 0.00 0.00 72 1017.4
20260507015504 17 152 1.6 8.0 0.00 0.00 0.00 71 1017.4
20260507015005 17 219 3.2 9.7 0.00 0.00 0.00 71 1017.4
20260507014516 18 218 4.8 9.7 0.00 0.00 0.00 69 1017.5
20260507014007 18 219 3.2 8.0 0.00 0.00 0.00 68 1017.4
20260507013509 18 167 3.2 8.0 0.00 0.00 0.00 67 1017.4
20260507013023 18 221 1.6 12.9 0.00 0.00 0.00 67 1017.3
20260507012508 18 229 6.4 12.9 0.00 0.00 0.00 66 1017.3
20260507012011 18 218 3.2 9.7 0.00 0.00 0.00 65 1017.2
20260507011521 18 219 3.2 9.7 0.00 0.00 0.00 64 1017.3
20260507011008 18 196 1.6 14.5 0.00 0.00 0.00 64 1017.4
20260507010510 18 227 3.2 14.5 0.00 0.00 0.00 63 1017.4
20260507010025 18 234 4.8 14.5 0.00 0.00 0.00 63 1017.5
20260507005511 18 224 4.8 11.3 0.00 0.00 0.00 63 1017.4
20260507005004 18 220 3.2 14.5 0.00 0.00 0.00 63 1017.4
20260507004528 18 204 6.4 14.5 0.00 0.00 0.00 64 1017.4
20260507004009 19 236 4.8 14.5 0.00 0.00 0.00 63 1017.3
20260507003509 19 212 4.8 14.5 0.00 0.00 0.00 62 1017.3
20260507003019 19 240 6.4 14.5 0.00 0.00 0.00 61 1017.3
20260507002506 19 211 3.2 12.9 0.00 0.00 0.00 60 1017.3
20260507002009 19 224 3.2 12.9 0.00 0.00 0.00 60 1017.3
20260507001526 19 213 6.4 11.3 0.00 0.00 0.00 60 1017.3
20260507001009 20 233 3.2 14.5 0.00 0.00 0.00 59 1017.2
20260507000510 19 263 4.8 14.5 0.00 0.00 0.00 58 1017.1
20260507000027 20 136 4.8 14.5 0.00 0.00 0.00 58 1017.1
20260506235507 20 291 4.8 14.5 0.00 0.00 0.00 58 1017.1
20260506235009 20 214 4.8 14.5 0.00 0.00 0.00 57 1017.2
20260506234535 20 253 6.4 17.7 0.00 0.00 0.00 57 1017.2
20260506234007 20 102 4.8 17.7 0.00 0.00 0.00 57 1017.2
20260506233509 20 209 6.4 16.1 0.00 0.00 0.00 57 1017.2
20260506233014 20 221 6.4 16.1 0.00 0.00 0.00 57 1017.3
20260506232505 20 261 4.8 12.9 0.00 0.00 0.00 58 1017.3
20260506232007 20 227 3.2 12.9 0.00 0.00 0.00 58 1017.4
20260506231532 20 261 4.8 16.1 0.00 0.00 0.00 59 1017.3
20260506231007 20 216 3.2 16.1 0.00 0.00 0.00 59 1017.4
20260506230510 20 176 8.0 17.7 0.00 0.00 0.00 59 1017.4
20260506230023 20 221 9.7 17.7 0.00 0.00 0.00 59 1017.5
20260506225503 20 246 3.2 17.7 0.00 0.00 0.00 60 1017.6
20260506225003 20 225 4.8 17.7 0.00 0.00 0.00 60 1017.7
20260506224507 20 205 6.4 16.1 0.00 0.00 0.00 60 1017.8
20260506224003 20 224 3.2 16.1 0.00 0.00 0.00 60 1017.9
20260506223507 20 206 6.4 16.1 0.00 0.00 0.00 60 1017.9
20260506223014 20 300 6.4 14.5 0.00 0.00 0.00 61 1018.0
20260506222508 20 186 4.8 17.7 0.00 0.00 0.00 60 1018.1
20260506222008 20 250 4.8 20.9 0.00 0.00 0.00 61 1018.2
20260506221519 21 252 8.0 20.9 0.00 0.00 0.00 59 1018.3
20260506221010 21 188 4.8 17.7 0.00 0.00 0.00 60 1018.3
20260506220511 21 202 4.8 16.1 0.00 0.00 0.00 59 1018.3
20260506220025 21 314 6.4 16.1 0.00 0.00 0.00 58 1018.4
20260506215514 21 181 4.8 16.1 0.00 0.00 0.00 58 1018.5
20260506215012 21 227 6.4 16.1 0.00 0.00 0.00 58 1018.5
20260506214507 21 221 8.0 16.1 0.00 0.00 0.00 59 1018.5
20260506214005 21 261 3.2 12.9 0.00 0.00 0.00 57 1018.6
20260506213503 21 194 4.8 14.5 0.00 0.00 0.00 58 1018.6
20260506213012 21 214 4.8 16.1 0.00 0.00 0.00 57 1018.7
20260506212507 21 290 8.0 12.9 0.00 0.00 0.00 57 1018.6
20260506212007 21 215 4.8 14.5 0.00 0.00 0.00 58 1018.7
20260506211519 21 317 4.8 14.5 0.00 0.00 0.00 57 1018.7
20260506211009 22 172 3.2 14.5 0.00 0.00 0.00 56 1018.7
20260506210511 21 259 4.8 14.5 0.00 0.00 0.00 59 1018.8
20260506210025 21 211 4.8 17.7 0.00 0.00 0.00 56 1018.8
20260506205507 21 195 6.4 17.7 0.00 0.00 0.00 57 1019.0
20260506205010 21 180 4.8 12.9 0.00 0.00 0.00 57 1018.9
20260506204526 21 209 4.8 14.5 0.00 0.00 0.00 57 1018.9
20260506204009 21 223 4.8 14.5 0.00 0.00 0.00 55 1018.9
20260506203504 21 267 4.8 14.5 0.00 0.00 0.00 57 1019.0
20260506203009 21 202 3.2 11.3 0.00 0.00 0.00 59 1019.1
20260506202508 21 230 6.4 16.1 0.00 0.00 0.00 58 1019.2
20260506202007 21 240 6.4 16.1 0.00 0.00 0.00 58 1019.2
20260506201530 20 196 4.8 16.1 0.00 0.00 0.00 59 1019.2
20260506201007 21 207 6.4 12.9 0.00 0.00 0.00 59 1019.3
20260506200507 21 226 4.8 12.9 0.00 0.00 0.00 57 1019.4
20260506200018 21 212 4.8 14.5 0.00 0.00 0.00 58 1019.4
20260506195511 21 244 3.2 14.5 0.00 0.00 0.00 59 1019.4
20260506195011 21 272 6.4 11.3 0.00 0.00 0.00 59 1019.4
20260506194527 21 273 6.4 12.9 0.00 0.00 0.00 60 1019.5
20260506194012 21 208 4.8 12.9 0.00 0.00 0.00 60 1019.5
20260506193510 21 153 6.4 14.5 0.00 0.00 0.00 60 1019.5
20260506193026 21 169 3.2 14.5 0.00 0.00 0.00 61 1019.6
20260506192505 20 212 4.8 16.1 0.00 0.00 0.00 61 1019.6
20260506192005 20 223 4.8 17.7 0.00 0.00 0.00 61 1019.6
20260506191512 21 303 6.4 17.7 0.00 0.00 0.00 61 1019.6
20260506191011 21 219 4.8 9.7 0.00 0.00 0.00 60 1019.7
20260506190511 21 196 3.2 12.9 0.00 0.00 0.00 61 1019.6
20260506190020 21 215 4.8 12.9 0.00 0.00 0.00 61 1019.6
20260506185507 21 215 3.2 14.5 0.00 0.00 0.00 61 1019.6
20260506185009 20 209 4.8 14.5 0.00 0.00 0.00 62 1019.7
20260506184524 20 238 6.4 17.7 0.00 0.00 0.00 62 1019.8
20260506184014 20 209 3.2 17.7 0.00 0.00 0.00 63 1019.8
20260506183508 20 236 3.2 9.7 0.00 0.00 0.00 62 1019.8
20260506183031 20 213 4.8 11.3 0.00 0.00 0.00 62 1019.8
20260506182508 21 219 4.8 11.3 0.00 0.00 0.00 62 1019.9
20260506182011 21 317 3.2 12.9 0.00 0.00 0.00 62 1019.8
20260506181510 20 25 3.2 12.9 0.00 0.00 0.00 63 1019.9
20260506181007 20 281 6.4 12.9 0.00 0.00 0.00 64 1019.9
20260506180507 20 275 4.8 9.7 0.00 0.00 0.00 62 1019.9
20260506180018 20 207 4.8 11.3 0.00 0.00 0.00 61 1019.9
20260506175510 20 251 4.8 11.3 0.00 0.00 0.00 61 1020.0
20260506175007 20 302 3.2 11.3 0.00 0.00 0.00 61 1019.9
20260506174519 20 206 3.2 9.7 0.00 0.00 0.00 61 1019.9
20260506174011 21 220 3.2 9.7 0.00 0.00 0.00 62 1019.9
20260506173508 20 311 1.6 12.9 0.00 0.00 0.00 62 1019.9
20260506173024 20 141 4.8 12.9 0.00 0.00 0.00 60 1019.9
20260506172511 20 209 1.6 9.7 0.00 0.00 0.00 61 1019.9
20260506172009 20 205 3.2 9.7 0.00 0.00 0.00 60 1019.9
20260506171530 20 238 3.2 9.7 0.00 0.00 0.00 62 1019.8
20260506171011 19 202 3.2 9.7 0.00 0.00 0.00 62 1019.8
20260506170507 19 210 1.6 8.0 0.00 0.00 0.00 62 1019.8
20260506170014 19 205 3.2 9.7 0.00 0.00 0.00 60 1019.8
20260506165512 19 203 3.2 11.3 0.00 0.00 0.00 63 1019.9
20260506165008 19 352 4.8 12.9 0.00 0.00 0.00 63 1019.9
20260506164522 19 343 1.6 12.9 0.00 0.00 0.00 62 1019.9
20260506164011 18 220 0.0 4.8 0.00 0.00 0.00 62 1020.0
20260506163508 18 237 1.6 6.4 0.00 0.00 0.00 63 1020.1
20260506163025 18 191 3.2 6.4 0.00 0.00 0.00 63 1020.0
20260506162509 18 329 0.0 6.4 0.00 0.00 0.00 64 1020.0
20260506162018 18 225 3.2 6.4 0.00 0.00 0.00 64 1020.0
20260506161526 17 247 0.0 6.4 0.00 0.00 0.00 64 1020.0
20260506161009 17 198 0.0 6.4 0.00 0.00 0.00 67 1020.0
20260506160511 17 187 1.6 3.2 0.00 0.00 0.00 67 1020.1
20260506160030 16 194 0.0 4.8 0.00 0.00 0.00 65 1020.0
20260506155508 17 352 0.0 4.8 0.00 0.00 0.00 65 1019.9
20260506155009 17 9 1.6 4.8 0.00 0.00 0.00 65 1020.0
20260506154522 17 51 1.6 8.0 0.00 0.00 0.00 66 1019.9
20260506154010 16 46 0.0 8.0 0.00 0.00 0.00 66 1019.9
20260506153512 16 89 0.0 4.8 0.00 0.00 0.00 66 1020.0
20260506153024 16 27 1.6 6.4 0.00 0.00 0.00 68 1020.0
20260506152509 16 26 0.0 6.4 0.00 0.00 0.00 69 1020.0
20260506152011 16 61 1.6 4.8 0.00 0.00 0.00 70 1020.1
20260506151526 15 65 1.6 6.4 0.00 0.00 0.00 72 1020.1
20260506151010 15 348 1.6 8.0 0.00 0.00 0.00 73 1020.1
20260506150510 15 53 1.6 8.0 0.00 0.00 0.00 73 1020.1
20260506150027 14 32 1.6 8.0 0.00 0.00 0.00 73 1020.1
20260506145508 14 67 0.0 8.0 0.00 0.00 0.00 74 1020.1
20260506145010 13 66 1.6 8.0 0.00 0.00 0.00 75 1020.0
20260506144517 13 39 1.6 9.7 0.00 0.00 0.00 76 1020.0
20260506144008 13 34 1.6 9.7 0.00 0.00 0.00 77 1020.0
20260506143508 13 32 1.6 6.4 0.00 0.00 0.00 78 1019.9
20260506143029 13 29 1.6 6.4 0.00 0.00 0.00 79 1019.9
20260506142509 12 71 1.6 6.4 0.00 0.00 0.00 80 1019.9
20260506142004 12 31 1.6 6.4 0.00 0.00 0.00 81 1019.8
20260506141509 12 52 0.0 3.2 0.00 0.00 0.00 83 1019.8
20260506141009 11 65 0.0 3.2 0.00 0.00 0.00 83 1019.8
20260506140505 11 68 0.0 3.2 0.00 0.00 0.00 84 1019.7
20260506140010 11 77 1.6 3.2 0.00 0.00 0.00 84 1019.7
20260506135503 11 67 0.0 3.2 0.00 0.00 0.00 84 1019.7
20260506135006 10 93 0.0 3.2 0.00 0.00 0.00 85 1019.6
20260506134514 10 62 0.0 3.2 0.00 0.00 0.00 85 1019.7
20260506134011 10 78 0.0 3.2 0.00 0.00 0.00 85 1019.6
20260506133510 10 91 0.0 0.0 0.00 0.00 0.00 85 1019.6
20260506133020 10 91 0.0 0.0 0.00 0.00 0.00 85 1019.5
20260506132510 10 90 0.0 0.0 0.00 0.00 0.00 84 1019.5
20260506132005 10 90 0.0 0.0 0.00 0.00 0.00 84 1019.5
20260506131503 11 90 0.0 3.2 0.00 0.00 0.00 84 1019.5
20260506131005 11 91 0.0 3.2 0.00 0.00 0.00 84 1019.4
20260506130506 11 92 0.0 3.2 0.00 0.00 0.00 84 1019.4
20260506130013 11 92 0.0 4.8 0.00 0.00 0.00 84 1019.2
20260506125507 11 53 1.6 4.8 0.00 0.00 0.00 85 1019.2
20260506125008 10 63 0.0 0.0 0.00 0.00 0.00 85 1019.1
20260506124514 11 68 0.0 0.0 0.00 0.00 0.00 85 1019.1
20260506124008 11 57 0.0 0.0 0.00 0.00 0.00 85 1019.1
20260506123510 11 57 0.0 0.0 0.00 0.00 0.00 85 1019.1
20260506123023 11 57 0.0 0.0 0.00 0.00 0.00 84 1019.1
20260506122510 11 57 0.0 4.8 0.00 0.00 0.00 84 1019.0
20260506122012 11 57 0.0 4.8 0.00 0.00 0.00 84 1018.9
20260506121525 11 57 0.0 3.2 0.00 0.00 0.00 84 1018.8
20260506121004 11 52 0.0 3.2 0.00 0.00 0.00 84 1018.8
20260506120505 11 52 0.0 3.2 0.00 0.00 0.00 84 1018.7
20260506120009 11 48 0.0 3.2 0.00 0.00 0.00 85 1018.7
20260506115502 11 53 0.0 3.2 0.00 0.00 0.00 85 1018.7
20260506115009 11 67 0.0 3.2 0.00 0.00 0.00 84 1018.7
20260506114511 11 67 0.0 3.2 0.00 0.00 0.00 84 1018.7
20260506114011 11 82 0.0 3.2 0.00 0.00 0.00 85 1018.7
20260506113507 11 33 1.6 3.2 0.00 0.00 0.00 85 1018.7
20260506113026 11 26 0.0 3.2 0.00 0.00 0.00 85 1018.7
20260506112510 11 44 1.6 3.2 0.00 0.00 0.00 85 1018.7
20260506112013 11 49 1.6 3.2 0.00 0.00 0.00 85 1018.6
20260506111519 11 71 0.0 3.2 0.00 0.00 0.00 84 1018.7
20260506111013 11 46 0.0 4.8 0.00 0.00 0.00 85 1018.7
20260506110509 11 25 1.6 4.8 0.00 0.00 0.00 85 1018.7
20260506110008 11 32 0.0 4.8 0.00 0.00 0.00 85 1018.7
20260506105505 11 40 0.0 3.2 0.00 0.00 0.00 85 1018.7
20260506105007 11 44 0.0 4.8 0.00 0.00 0.00 85 1018.7
20260506104509 11 15 0.0 4.8 0.00 0.00 0.00 85 1018.7
20260506104006 11 11 0.0 3.2 0.00 0.00 0.00 85 1018.6
20260506103507 11 49 0.0 3.2 0.00 0.00 0.00 85 1018.5
20260506103014 11 28 0.0 3.2 0.00 0.00 0.00 85 1018.5
20260506102508 11 42 0.0 3.2 0.00 0.00 0.00 85 1018.4
20260506102011 11 34 1.6 4.8 0.00 0.00 0.00 85 1018.5
20260506101519 11 40 1.6 4.8 0.00 0.00 0.00 85 1018.5
20260506101007 11 24 0.0 4.8 0.00 0.00 0.00 86 1018.6
20260506100508 11 347 1.6 4.8 0.00 0.00 0.00 85 1018.5
20260506100027 11 60 1.6 4.8 0.00 0.00 0.00 85 1018.5
20260506095509 11 53 0.0 4.8 0.00 0.00 0.00 85 1018.5
20260506095006 11 36 0.0 4.8 0.00 0.00 0.00 85 1018.5
20260506094506 11 344 0.0 3.2 0.00 0.00 0.00 85 1018.5
20260506094005 11 85 0.0 3.2 0.00 0.00 0.00 84 1018.6
20260506093506 11 81 0.0 3.2 0.00 0.00 0.00 84 1018.7
20260506093011 12 79 0.0 3.2 0.00 0.00 0.00 84 1018.7
20260506092507 12 61 0.0 3.2 0.00 0.00 0.00 84 1018.7
20260506092010 12 64 0.0 3.2 0.00 0.00 0.00 84 1018.8
20260506091519 12 39 0.0 3.2 0.00 0.00 0.00 85 1018.7
20260506091009 12 55 0.0 3.2 0.00 0.00 0.00 85 1018.8
20260506090510 12 55 0.0 3.2 0.00 0.00 0.00 85 1018.8
20260506090035 12 46 0.0 3.2 0.00 0.00 0.00 85 1018.9